Location: Sternwarte_Laufen
(47.9344°N, 12.9346°E)
Time: 03:15:06
(UTC+02:00)

ISS - Visible Passes

Search period start: 25 May 2017 00:00
Search period end: 04 June 2017 00:00
Orbit: 402 x 409 km, 51.6° (Epoch: 25 May)

Date Brightness Start Highest point End Pass type
(mag) Time Alt. Az. Time Alt. Az. Time Alt. Az.
25 May -2.5 01:06:39 10° WNW 01:09:49 41° N 01:12:58 10° ENE visible
25 May -3.6 02:43:19 10° WNW 02:46:37 69° NNE 02:49:53 10° ESE visible
25 May -2.9 04:20:05 10° W 04:22:55 27° SW 04:25:44 10° SSE visible
25 May -4.0 22:37:43 10° WSW 22:41:01 75° SSE 22:44:18 10° ENE visible
26 May -2.6 00:14:30 10° W 00:17:41 44° N 00:20:52 10° ENE visible
26 May -3.0 01:51:18 10° WNW 01:54:32 52° NNE 01:57:45 10° E visible
26 May -3.6 03:27:51 10° WNW 03:31:01 44° SSW 03:34:09 10° SE visible
26 May -3.6 21:45:51 10° SW 21:49:01 47° SSE 21:52:13 10° ENE visible
26 May -2.9 23:22:18 10° W 23:25:33 51° NNW 23:28:46 10° ENE visible
27 May -2.7 00:59:12 10° WNW 01:02:24 44° N 01:05:34 10° E visible
27 May -4.0 02:35:45 10° WNW 02:39:02 71° SSW 02:42:18 10° ESE visible
27 May -2.0 04:13:19 10° WSW 04:15:02 14° SW 04:16:45 10° SSW visible
27 May -3.4 22:30:08 10° WSW 22:33:25 67° NNW 22:36:43 10° ENE visible
28 May -2.5 00:07:04 10° WNW 00:10:13 41° N 00:13:23 10° ENE visible
28 May -3.8 01:43:41 10° WNW 01:46:59 78° NNE 01:47:25 63° E visible
28 May -3.8 21:38:02 10° WSW 21:41:20 87° SSE 21:44:39 10° ENE visible
28 May -2.5 23:14:52 10° WNW 23:18:03 42° N 23:21:13 10° ENE visible
29 May -3.2 00:51:37 10° WNW 00:54:53 58° NNE 00:56:00 35° ENE visible
29 May -1.3 02:28:14 10° WNW 02:28:36 12° W 02:28:36 12° W visible
29 May -2.7 22:22:39 10° W 22:25:51 48° N 22:29:04 10° ENE visible
29 May -2.8 23:59:30 10° WNW 00:02:43 47° N 00:05:06 16° E visible
30 May -2.3 01:36:03 10° WNW 01:37:43 26° W 01:37:43 26° W visible
30 May -2.6 23:07:21 10° WNW 23:10:31 42° N 23:13:40 10° ENE visible
31 May -3.8 00:43:56 10° WNW 00:47:01 76° WNW 00:47:01 76° WNW visible
31 May -2.5 22:15:08 10° WNW 22:18:18 41° N 22:21:27 10° ENE visible
31 May -3.5 23:51:49 10° WNW 23:55:07 64° NNE 23:56:24 33° E visible
01 Jun -1.3 01:28:30 10° W 01:29:02 13° W 01:29:02 13° W visible
01 Jun -3.0 22:59:41 10° WNW 23:02:55 50° NNE 23:05:50 12° E visible
02 Jun -2.8 00:36:15 10° WNW 00:38:28 35° W 00:38:28 35° W visible
02 Jun -2.6 22:07:31 10° WNW 22:10:41 43° N 22:13:52 10° E visible
02 Jun -4.0 23:44:04 10° WNW 23:47:22 79° SSW 23:47:57 56° SE visible
03 Jun -3.7 22:51:54 10° WNW 22:55:13 72° NNE 22:57:28 19° ESE visible
